Date,TemperatureHighF,TemperatureAvgF,TemperatureLowF,DewpointHighF,DewpointAvgF,DewpointLowF,HumidityHigh,HumidityAvg,HumidityLow,PressureMaxIn,PressureMinIn,WindSpeedMaxMPH,WindSpeedAvgMPH,GustSpeedMaxMPH,PrecipitationSumIn
2013-1-1,53,40,31,53,40,31,0,0,100,0.00,40.00,6,1,11,0.01
2013-1-2,52,40,30,52,40,29,0,0,100,0.00,40.00,6,1,7,0.01
2013-1-3,55,42,31,55,42,31,0,0,100,0.00,40.00,4,1,5,0.00
2013-1-4,56,44,36,56,44,36,0,0,100,0.00,40.00,2,1,5,0.00
2013-1-5,48,42,36,48,42,36,0,0,100,0.00,40.00,3,0,6,0.29
2013-1-6,53,47,40,53,47,40,0,0,100,0.00,40.00,9,3,13,0.31
2013-1-7,63,52,41,63,52,41,0,0,100,0.00,40.00,13,4,17,0.05
2013-1-8,60,51,42,60,51,42,0,0,100,0.00,40.00,10,2,14,0.05
2013-1-9,51,45,39,51,45,39,0,0,100,0.00,40.00,19,5,24,0.01
2013-1-10,48,40,34,48,40,34,0,0,100,0.00,40.00,21,6,21,0.00
2013-1-11,51,42,34,51,42,34,0,0,100,0.00,40.00,14,4,17,0.00
2013-1-12,47,38,32,47,38,32,0,0,100,0.00,40.00,5,1,8,0.00
2013-1-13,48,37,26,48,37,26,0,0,100,0.00,40.00,6,2,9,0.00
2013-1-14,52,40,28,52,40,27,0,0,100,0.00,40.00,6,2,8,0.00
2013-1-15,52,40,32,52,40,32,0,0,100,0.00,40.00,6,1,8,0.00
2013-1-16,54,42,32,54,42,31,0,0,100,0.00,40.00,5,1,6,0.00
2013-1-17,57,44,34,57,44,33,0,0,100,0.00,40.00,4,1,5,0.01
2013-1-18,47,39,36,47,39,35,0,0,100,0.00,40.00,2,0,3,0.00
2013-1-19,64,48,37,64,48,37,0,0,100,0.00,40.00,2,1,6,0.00
2013-1-20,63,48,38,63,48,38,0,0,100,0.00,40.00,3,1,6,0.00
2013-1-21,62,47,37,62,47,37,0,0,100,0.00,40.00,2,1,6,0.00
2013-1-22,63,51,38,63,51,38,0,0,100,0.00,40.00,3,1,5,0.00
2013-1-23,52,48,46,52,48,46,0,0,100,0.00,40.00,6,1,8,0.60
2013-1-24,60,53,48,60,53,48,0,0,100,0.00,40.00,8,1,8,0.00
2013-1-25,65,55,49,64,55,49,0,0,100,0.00,40.00,6,1,8,0.01
2013-1-26,55,48,41,55,48,41,0,0,100,0.00,40.00,18,6,21,0.00
2013-1-27,42,41,40,42,41,40,0,0,100,0.00,40.00,12,6,15,0.00
2013-1-28,56,46,38,56,46,38,0,0,100,0.00,40.00,9,6,19,0.00
2013-1-29,60,53,39,60,53,39,0,0,100,0.00,40.00,12,5,20,0.00
2013-1-30,64,54,42,64,54,42,0,0,100,0.00,40.00,6,1,12,0.00
2013-1-31,46,46,45,46,46,45,0,0,100,0.00,40.00,0,0,2,0.00
2013-2-1,66,51,40,66,51,40,0,0,100,0.00,40.00,3,1,7,0.01
2013-2-2,57,48,41,57,48,41,0,0,100,0.00,40.00,5,1,8,0.00
2013-2-3,56,47,42,56,47,41,0,0,100,0.00,40.00,7,2,8,0.00
2013-2-4,56,46,40,56,46,40,0,0,100,0.00,40.00,4,0,7,0.01
2013-2-5,60,49,43,60,49,43,0,0,100,0.00,40.00,13,4,17,0.03
2013-2-6,59,47,40,59,47,40,0,0,100,0.00,40.00,15,4,16,0.02
2013-2-7,50,43,39,50,43,39,0,0,100,0.00,40.00,9,2,11,0.12
2013-2-8,55,43,35,55,43,35,0,0,100,0.00,40.00,7,4,16,0.01
2013-2-9,47,42,37,46,42,37,0,0,100,0.00,40.00,9,3,10,0.00
2013-2-10,63,47,35,63,47,35,0,0,100,0.00,40.00,8,2,10,0.01
2013-2-11,52,46,44,52,46,44,0,0,100,0.00,40.00,4,2,5,0.00
2013-2-22,54,52,50,53,52,50,0,0,100,0.00,40.00,13,6,16,0.23